Regional Weather Roundup
Issued by NWS

Home | Current Version | Previous Version | Graphics & Text | Print | Product List | Glossary Off
Versions: 1 2 3 4 5 6 7 8 9 10 11 12 13 14 15 16 17 18 19 20 21 22 23 24 25 26 27 28 29 30 31 32 33 34 35 36 37 38 39 40 41 42 43 44 45 46 47 48 49 50

000
ASUS43 KMPX 311210
RWRMN
WEATHER ROUNDUP FOR MINNESOTA
NATIONAL WEATHER SERVICE TWIN CITIES/CHANHASSEN MN
700 AM CDT THU JUL 31 2014


NOTE: "FAIR" INDICATES FEW OR NO CLOUDS BELOW 12,000 FEET WITH NO
SIGNIFICANT WEATHER AND/OR OBSTRUCTIONS TO VISIBILITY. N/A MEANS
CURRENT SKY AND/OR WEATHER CONDITIONS ARE NOT AVAILABLE.

MNZ060>063-068>070-311300-
   Twin Cities Metro

CITY           SKY/WX    TMP DP  RH WIND       PRES   REMARKS
TWIN CITIES    PTCLDY    63  59  87 SW3       30.04S
6HR MIN TEMP:  63; 6HR MAX TEMP:  68;

ST PAUL        CLEAR     62  58  86 W3        30.04R
CRYSTAL        CLEAR     61  55  81 CALM      30.03S
BLAINE         CLEAR     63  57  82 CALM      30.04S
LAKEVILLE      CLEAR     59  55  88 W5        30.05S
EDEN PRAIRIE   CLEAR     58  57  97 SW5       30.04R
6HR MIN TEMP:  58; 6HR MAX TEMP:  65;

SOUTH ST PAUL  CLEAR     63  57  82 CALM      30.03S
LAKE ELMO      FAIR      59  55  88 CALM      30.04S
$$
MNZ001>005-007-008-013>017-022>024-027-028-311300-
   Northwest Minnesota

CITY           SKY/WX    TMP DP  RH WIND       PRES   REMARKS
BEMIDJI        CLEAR     58  54  86 W5        30.04S
HALLOCK        CLEAR     57  55  94 CALM      30.03R
ROSEAU         CLEAR     57  52  82 CALM      30.02S HAZE
WARROAD        CLEAR     57  54  88 CALM      30.02S
THIEF RVR FALL CLEAR     57  55  94 SW3       30.03S
CROOKSTON      CLEAR     57  55  94 CALM      30.04S
FOSSTON        CLEAR     54  52  94 S5        30.05S
DETROIT LAKES  PTCLDY    59  59 100 CALM      30.07S
MOORHEAD       PTCLDY    57  57 100 CALM      30.06R
PARK RAPIDS    PTCLDY    55  54  96 W3        30.05S
$$
MNZ006-009>011-018-025>026-311300-
   North Central Minnesota

CITY           SKY/WX    TMP DP  RH WIND       PRES   REMARKS
BAUDETTE       CLEAR     59  57  93 CALM      30.02R
FLAG ISLAND    CLEAR     64  61  88 NW5       30.01R
INTL FALLS     SUNNY     49  48  97 CALM      30.00S
6HR MIN TEMP:  46; 6HR MAX TEMP:  55;

WASKISH        CLEAR     63  59  88 NW5       30.01S
BIG FORK       CLEAR     52  50  93 CALM      30.02S
LONGVILLE      CLEAR     57  55  94 CALM      30.03R
GRAND RAPIDS   CLEAR     59  55  88 CALM      30.02R
CRANE LAKE     SUNNY     46  46 100 CALM      30.01  FOG
ORR            SUNNY     50  48  93 CALM      29.98S FOG
COOK           SUNNY     52  52 100 CALM      30.01S FOG
$$
MNZ012-019>021-037-311300-
   Northeast Minnesota

CITY           SKY/WX    TMP DP  RH WIND       PRES   REMARKS
DULUTH         SUNNY     59  55  87 NW6       29.99S
6HR MIN TEMP:  56; 6HR MAX TEMP:  64;

ELY            FOG       48  48 100 CALM      30.00S VSB<1/4
HIBBING        SUNNY     51  49  92 CALM      30.01R
EVELETH        FOG       50  48  93 CALM      30.01R VSB 1/4
DULUTH HARBOR  SUNNY     61  57  88 SW6       29.98S
TWO HARBORS    SUNNY     59  54  82 NW5       29.96S
SILVER BAY     SUNNY     46  46 100 CALM      29.97S
GRAND MARAIS     N/A     62  52  69 NW8       29.94R
G MARAIS ARPRT SUNNY     55  48  76 NW3       29.98S
$$
MNZ029>031-032-039>041-046>048-054>057-064-311300-
   West Central Minnesota

CITY           SKY/WX    TMP DP  RH WIND       PRES   REMARKS
FERGUS FALLS   FOG       57  55  94 CALM      30.06S VSB 1/2
WHEATON        PTCLDY    57  54  88 CALM      30.08S
MORRIS         PTCLDY    55  54  94 W3        30.06S
ALEXANDRIA     CLEAR     59  56  89 CALM      30.08R
ELBOW LAKE     FAIR      55  55  99 CALM      30.06S
WADENA         PTCLDY    55  55 100 CALM      30.05S
GLENWOOD       CLEAR     57  57 100 W6        30.07S
APPLETON       CLEAR     55  54  94 SW5       30.06S
BENSON         PTCLDY    54  52  94 CALM      30.07R FOG
ORTONVILLE     CLEAR     57  54  88 NW3       30.07S
MADISON        CLEAR     57  54  88 W5        30.07S
WILLMAR        FAIR      57  54  88 CALM      30.08S
$$
MNZ033>034-036-042>043-049>051-058-059-311300-
   Central Minnesota

CITY           SKY/WX    TMP DP  RH WIND       PRES   REMARKS
ST CLOUD       CLEAR     57  53  86 CALM      30.05R
6HR MIN TEMP:  54; 6HR MAX TEMP:  63;

SAUK CENTRE    FAIR      52  51  95 CALM      30.06S
PAYNESVILLE    CLEAR     50  50 100 SW3       30.07S
AITKIN         CLEAR     63  55  77 CALM      30.02R
PINE RIVER     PTCLDY    57  54  88 CALM      30.07S
BRAINERD       MOCLDY    55  55 100 S3        30.04S
STAPLES        PTCLDY    55  54  94 CALM      30.05S
LONG PRAIRIE   FAIR      54  54 100 CALM      30.06S
LITTLE FALLS   PTCLDY    52  50  93 CALM      30.05S
LITCHFIELD     CLEAR     63  59  88 W3        30.06S
BUFFALO        CLEAR     59  55  87 CALM      30.06S
MAPLE LAKE     CLEAR     57  55  94 CALM      30.06S
$$
MNZ037-044-045-052-053-311300-
   East Central Minnesota

CITY           SKY/WX    TMP DP  RH WIND       PRES   REMARKS
PRINCETON      CLEAR     55  55 100 CALM      30.04S
MORA           PTCLDY    59  52  77 CALM      30.04S
CAMBRIDGE      CLEAR     61  52  72 W3        30.02S
RUSH CITY      CLEAR     58  55  88 W3        30.03R
MOOSE LAKE     SUNNY     54  54 100 SW3       30.00R
HINCKLEY       FAIR      59  59 100 W3        30.01S
CLOQUET        SUNNY     57  55  94 W7        30.00S
MCGREGOR       CLEAR     55  54  94 CALM      30.02S
$$
MNZ071>073-080-081-089-090-097-098-311300-
   Southwest Minnesota

CITY           SKY/WX    TMP DP  RH WIND       PRES   REMARKS
MONTEVIDEO     PTCLDY    57  54  88 NW5       30.08S
GRANITE FALLS  CLEAR     55  53  94 SW7       30.08S
CANBY          CLEAR     56  53  88 W3        30.09R
MARSHALL       PTCLDY    57  52  82 CALM      30.07S
REDWOOD FALLS  CLEAR     57  54  89 W5        30.07R
OLIVIA         PTCLDY    57  54  88 CALM      30.06S
PIPESTONE      CLOUDY    59  54  82 CALM      30.10S
WINDOM         CLEAR     55  54  94 CALM      30.10R
WORTHINGTON    MOCLDY    59  54  82 W6        30.11S
JACKSON        CLEAR     57  52  82 W5        30.10S
TRACY          CLEAR     60  55  84 SW7       30.09S
SLAYTON        MOCLDY    56  54  93 CALM      30.11S
$$
MNZ065>067-074>077-082>085-091>093-311300-
   South Central Minnesota

CITY           SKY/WX    TMP DP  RH WIND       PRES   REMARKS
MANKATO        CLEAR     57  52  82 W3        30.07S
NEW ULM        CLEAR     55  55 100 CALM      30.07S
ST JAMES       CLEAR     59  54  82 CALM      30.08S
FAIRMONT       CLOUDY    59  52  77 W5        30.08S
GLENCOE        CLEAR     60  54  80 CALM      30.06R
FARIBAULT      CLEAR     61  54  77 CALM      30.06S
OWATONNA       CLEAR     55  54  94 CALM      30.07S FOG
WASECA         CLEAR     50  46  87 CALM      30.08S FOG
ALBERT LEA     PTCLDY    61  55  82 CALM      30.08R
$$
MNZ078>079-086>088-094>096-311300-
   Southeast Minnesota

CITY           SKY/WX    TMP DP  RH WIND       PRES   REMARKS
ROCHESTER      CLEAR     58  54  86 W9        30.07S
6HR MIN TEMP:  57; 6HR MAX TEMP:  61;

RED WING       CLEAR     57  55  94 CALM      30.03R FOG
STANTON        CLEAR     56  54  91 CALM      30.04R
DODGE CENTER   CLEAR     55  54  94 W8        30.07R
WINONA         SUNNY     59  55  88 CALM      30.03S
AUSTIN         CLEAR     55  54  94 CALM      30.07R
PRESTON        CLEAR     58  58  97 W7        30.06S
$$
ABBREVIATIONS USED IN REMARKS
   TC - TEMPERATURES IN CELSIUS
  WCI - WIND CHILL INDEX
   HX - HEAT INDEX
  VSB - VISIBILITY
$$



USA.gov is the U.S. government's official web portal to all federal, state and local government web resources and services.